Temp
3 3 3 4 5 5 4 4 4 4 4 4 5 5 5 5 5 6 6 6 7 7 8 8 9 9 9 9 9 8 7 7 7 7 7 6 5 4 4 4 2 2 2 2
2 3 4 3 3 3 3 2 3 4 5 4 4 4 5 4 4 5 5 6 6 7 8 8 8 8 8 9 9 8 7 7 7 7 7 5 5 4 3 4 3 2 2 1
2 3 5 4 3 2 2 2 3 4 4 3 3 4 4 4 4 5 6 6 6 5 8 7 8 9 9 9 9 8 7 7 7 7 7 5 5 5 3 3 3 3 2 2
2 3 3 3 2 2 2 3 3 3 2 2 3 2 4 4 4 5 6 5 5 5 6 7 8 8 9 9 9 8 8 7 7 7 7 6 5 4 4 3 3 3 2 2
3 2 3 3 3 3 3 2 2 2 2 3 3 2 3 3 3 5 5 5 4 4 5 7 8 8 9 8 8 8 7 8 7 7 7 6 5 4 4 3 3 3 2 2
1 2 2 2 2 2 2 2 2 2 2 1 2 2 3 3 4 4 4 4 5 4 6 7 8 8 8 8 8 8 7 8 7 7 7 6 5 4 3 3 2 2 2 2
0 1 1 1 1 2 2 2 -0 0 -1 1 3 3 3 3 3 3 3 4 4 5 7 7 7 8 8 8 7 7 7 8 7 7 7 6 5 3 3 3 3 3 2 2
1 1 1 1 1 2 2 2 1 -0 -1 1 2 1 3 3 3 3 3 3 3 4 5 7 8 8 9 8 8 7 8 8 7 7 6 6 5 3 2 2 2 2 2 2
-0 0 0 1 1 1 1 2 2 1 2 0 2 2 2 3 2 2 3 3 3 4 5 7 8 9 9 9 8 7 7 7 7 7 7 6 5 3 3 2 2 2 2 2
-1 -2 -1 -0 1 1 0 0 1 0 -1 -0 0 1 2 2 2 2 2 3 3 4 6 8 8 9 8 8 7 7 7 7 7 7 6 6 6 4 3 3 2 2 2 2
-2 -2 -1 -1 -0 -0 0 -0 -1 -1 -1 -1 -1 1 2 0 1 0 1 1 1 2 4 5 6 7 8 7 6 7 7 7 7 6 6 6 6 5 4 3 2 1 2 1
-3 -3 -2 -2 -1 -2 -2 -2 -2 -3 -3 -4 -3 -1 1 1 0 -0 0 0 1 1 1 2 3 6 7 6 6 6 7 7 6 6 6 6 6 6 5 4 3 2 2 1
-4 -4 -4 -2 -3 -2 -3 -3 -4 -4 -4 -4 -3 -2 0 0 -0 -0 -0 0 -1 -1 1 2 3 6 5 5 5 6 6 6 6 6 6 6 6 6 6 5 4 3 2 2
-5 -5 -4 -4 -4 -4 -4 -4 -4 -4 -4 -4 -4 -4 -1 -1 -1 -2 -1 -1 -0 -1 -0 1 2 4 4 5 5 5 6 6 6 6 6 5 5 5 5 5 5 4 3 2
-6 -5 -5 -5 -5 -5 -5 -4 -5 -5 -4 -5 -2 -3 -2 -1 -1 -1 -1 -2 -1 -1 -1 -0 1 3 5 5 5 5 5 6 6 5 5 5 5 5 5 5 4 4 3 3
-7 -6 -6 -6 -6 -5 -6 -5 -4 -5 -5 -5 -4 -4 -2 -2 -1 -1 -2 -2 -1 -1 -1 -1 0 1 3 4 4 4 5 5 5 5 5 5 5 5 5 5 4 4 4 3
-7 -7 -7 -7 -6 -6 -6 -4 -4 -3 -4 -4 -4 -2 -2 -2 -1 -2 -1 -2 -2 -2 -2 -2 0 1 2 1 3 3 3 4 5 5 5 5 5 5 4 4 4 4 4 4
-7 -7 -7 -7 -7 -7 -5 -5 -4 -4 -4 -4 -4 -3 -2 -2 -1 -2 -1 -2 -1 -2 -1 -1 -0 0 0 0 1 1 2 3 3 4 5 5 4 4 4 4 4 4 4 4
-7 -7 -8 -8 -7 -6 -6 -5 -5 -5 -4 -4 -3 -4 -3 -2 -2 -1 -1 -2 -2 -1 0 -1 2 2 2 2 2 2 2 2 2 2 3 4 4 4 4 4 4 4 3 3
-7 -7 -9 -8 -8 -9 -5 -5 -6 -6 -5 -5 -4 -4 -3 -3 -2 -2 -2 -2 -1 -1 0 0 1 1 3 3 3 4 3 3 3 2 1 2 3 4 3 3 3 3 3 3
-7 -8 -8 -9 -8 -7 -5 -5 -5 -6 -5 -5 -5 -4 -3 -3 -3 -2 -2 -1 -1 -0 0 0 1 1 2 2 3 3 3 3 3 3 2 1 1 1 2 2 2 2 3 3
-8 -7 -8 -9 -9 -8 -5 -5 -5 -5 -5 -5 -4 -4 -4 -4 -4 -3 -3 -2 -1 -1 -0 1 1 1 2 2 2 2 2 2 2 2 1 1 0 0 0 1 1 2 2 2
-8 -8 -8 -7 -7 -6 -5 -5 -6 -5 -6 -5 -6 -5 -5 -5 -5 -4 -4 -3 -3 -2 -1 1 1 1 1 2 2 2 2 2 2 2 1 -0 0 0 0 0 0 1 0 -0
-8 -8 -7 -7 -7 -6 -6 -5 -6 -5 -6 -5 -5 -5 -6 -5 -5 -5 -5 -4 -3 -2 -2 -1 0 1 1 2 2 2 2 2 2 2 2 1 1 1 1 1 1 0 0 1
-8 -8 -8 -6 -6 -6 -6 -6 -6 -5 -6 -5 -5 -5 -6 -5 -5 -5 -4 -4 -3 -2 -2 -1 -0 0 1 2 2 2 1 2 2 2 2 2 2 2 1 1 0 0 0 -0
-8 -8 -7 -7 -7 -6 -6 -6 -5 -5 -5 -5 -5 -6 -6 -5 -5 -5 -4 -4 -4 -3 -3 -2 -3 -3 -3 -2 -1 0 0 1 1 2 2 2 2 1 0 1 0 1 1 0
Height
3044 3041 3034 3043 3047 3048 3048 3047 3043 3046 3052 3051 3044 3038 3039 3043 3041 3039 3038 3039 3038 3037 3039 3040 3041 3043 3043 3047 3048 3051 3051 3049 3046 3044 3040 3038 3038 3037 3036 3031 3031 3037 3043 3050
3039 3030 3036 3041 3041 3043 3044 3043 3037 3039 3046 3046 3041 3029 3031 3035 3035 3036 3033 3032 3030 3028 3032 3034 3036 3035 3039 3041 3043 3045 3047 3045 3042 3040 3037 3037 3036 3036 3035 3035 3036 3039 3045 3051
3031 3030 3031 3032 3034 3037 3037 3036 3037 3038 3041 3040 3036 3020 3022 3026 3027 3027 3026 3026 3024 3020 3023 3027 3029 3029 3032 3034 3037 3041 3042 3041 3038 3035 3034 3033 3034 3033 3034 3036 3038 3040 3045 3051
3024 3022 3026 3029 3028 3033 3030 3034 3036 3036 3037 3033 3036 3020 3010 3020 3017 3019 3018 3019 3015 3014 3016 3020 3021 3023 3027 3029 3032 3036 3037 3036 3034 3032 3030 3031 3031 3032 3034 3036 3040 3042 3046 3050
3015 3016 3020 3022 3023 3028 3023 3032 3032 3033 3031 3030 3026 3030 3001 3011 3011 3011 3013 3012 3011 3011 3011 3012 3014 3017 3021 3023 3027 3030 3032 3031 3030 3028 3026 3027 3028 3029 3031 3033 3036 3040 3045 3049
3012 3016 3016 3017 3021 3023 3024 3026 3027 3027 3027 3024 3019 3025 3000 3011 3011 3006 3008 3007 3006 3003 3003 3007 3009 3009 3012 3015 3020 3024 3026 3026 3026 3024 3023 3024 3025 3026 3026 3029 3032 3036 3041 3045
3009 3008 3011 3015 3016 3018 3019 3020 3023 3024 3023 3016 3018 3017 3008 3008 3010 3006 3002 3001 2999 2998 2999 3002 3003 3006 3006 3008 3014 3018 3021 3022 3022 3021 3020 3020 3020 3021 3022 3025 3028 3030 3034 3036
3005 3005 3007 3009 3012 3013 3013 3015 3017 3017 3017 3012 3012 3006 3002 3006 3005 3004 3001 2996 2996 2994 2992 2995 2996 2999 3000 3002 3007 3013 3017 3018 3018 3018 3018 3017 3016 3016 3017 3020 3022 3025 3026 3027
3001 3002 3004 3006 3008 3009 3009 3010 3011 3010 3009 3011 3006 3001 2999 3001 3000 2999 2997 2994 2993 2989 2989 2986 2988 2989 2994 2997 3002 3009 3012 3014 3014 3015 3015 3013 3013 3011 3013 3015 3016 3017 3016 3017
2998 2999 3000 3003 3005 3005 3006 3007 3007 3008 3007 3005 2999 2997 2996 2998 2996 2994 2992 2990 2988 2984 2981 2979 2980 2982 2984 2990 2999 3004 3008 3011 3012 3013 3013 3012 3011 3008 3011 3013 3013 3013 3013 3014
2996 2997 2998 3000 3001 3001 3003 3003 3004 3005 3006 3003 3000 2995 2996 2996 2994 2991 2988 2985 2982 2981 2973 2971 2973 2973 2978 2984 2991 2999 3003 3007 3009 3012 3012 3011 3011 3007 3008 3010 3012 3012 3012 3013
2996 2996 2995 2996 2997 2997 3000 3001 3001 3003 3005 3005 3005 2996 2995 2995 2992 2988 2985 2982 2975 2974 2969 2970 2969 2969 2976 2982 2987 2993 2999 3003 3007 3009 3011 3011 3010 3009 3007 3009 3010 3011 3012 3015
2999 2998 2996 2995 2996 2997 2999 3000 3000 3001 3001 3001 3002 2992 2992 2992 2990 2985 2982 2978 2973 2970 2966 2967 2967 2967 2973 2979 2983 2987 2991 2998 3003 3006 3008 3009 3010 3010 3009 3009 3009 3011 3014 3016
2999 2997 2993 2993 2996 2999 2998 2998 3000 3000 3000 2996 2996 2990 2989 2989 2986 2982 2981 2975 2975 2967 2964 2964 2965 2964 2968 2973 2978 2983 2987 2992 2997 3003 3006 3008 3009 3010 3010 3010 3010 3011 3013 3016
2994 2990 2990 2991 2994 2993 2993 2993 2994 2995 2993 2992 2986 2984 2984 2984 2984 2983 2978 2975 2970 2963 2964 2964 2964 2961 2965 2971 2975 2980 2984 2988 2993 2999 3004 3007 3007 3009 3010 3011 3012 3012 3013 3016
2990 2988 2988 2987 2988 2988 2986 2985 2985 2985 2983 2982 2979 2974 2981 2980 2980 2979 2976 2972 2968 2962 2961 2957 2963 2962 2961 2966 2970 2974 2980 2985 2989 2994 2999 3003 3006 3008 3010 3011 3012 3014 3015 3016
2985 2987 2986 2984 2984 2983 2980 2975 2976 2974 2974 2974 2970 2970 2976 2975 2974 2973 2967 2969 2966 2964 2962 2957 2954 2956 2957 2960 2966 2971 2974 2980 2986 2990 2994 2997 3001 3005 3008 3009 3010 3013 3015 3018
2978 2979 2981 2979 2981 2980 2968 2969 2969 2968 2964 2964 2962 2964 2968 2968 2969 2967 2963 2967 2965 2964 2961 2960 2956 2958 2957 2959 2961 2964 2969 2975 2980 2985 2990 2993 2997 3000 3003 3005 3007 3010 3012 3015
2972 2974 2975 2976 2974 2968 2963 2966 2966 2962 2957 2955 2955 2959 2962 2963 2965 2964 2963 2963 2963 2963 2961 2960 2957 2960 2959 2959 2960 2962 2967 2970 2975 2979 2983 2987 2991 2995 2998 3001 3004 3006 3009 3011
2968 2968 2969 2970 2969 2966 2960 2963 2962 2960 2952 2952 2954 2957 2958 2959 2959 2961 2961 2960 2960 2959 2958 2959 2958 2957 2958 2958 2959 2961 2964 2966 2971 2976 2979 2982 2986 2990 2993 2996 2999 3002 3005 3007
2963 2958 2956 2961 2965 2960 2956 2959 2960 2960 2953 2950 2953 2954 2954 2955 2957 2958 2956 2954 2955 2955 2955 2955 2957 2956 2956 2956 2957 2958 2961 2964 2967 2970 2971 2976 2980 2983 2988 2991 2994 2996 2998 3001
2958 2951 2951 2956 2961 2960 2953 2956 2957 2955 2951 2951 2952 2952 2953 2953 2953 2952 2951 2949 2949 2949 2948 2948 2950 2952 2953 2953 2953 2956 2958 2960 2962 2966 2967 2969 2973 2978 2982 2985 2988 2991 2992 2993
2954 2953 2951 2953 2953 2952 2953 2953 2952 2951 2952 2952 2952 2952 2951 2951 2951 2949 2947 2946 2943 2942 2942 2942 2943 2944 2946 2948 2950 2952 2955 2956 2958 2961 2963 2963 2968 2971 2976 2980 2983 2985 2986 2986
2952 2950 2948 2951 2950 2950 2950 2952 2952 2948 2949 2951 2951 2951 2950 2949 2948 2947 2946 2945 2942 2939 2937 2935 2935 2936 2938 2940 2942 2946 2949 2952 2954 2956 2958 2960 2964 2966 2969 2972 2976 2977 2977 2982
2955 2951 2948 2948 2947 2945 2946 2948 2950 2951 2950 2950 2949 2948 2947 2946 2946 2944 2943 2942 2941 2936 2930 2929 2929 2929 2930 2933 2935 2938 2942 2946 2950 2952 2954 2956 2959 2962 2964 2967 2969 2972 2974 2974
2957 2954 2951 2948 2947 2946 2945 2945 2948 2949 2948 2948 2948 2947 2946 2943 2941 2939 2940 2938 2935 2931 2926 2922 2922 2922 2924 2926 2928 2929 2932 2937 2941 2944 2948 2950 2953 2955 2956 2960 2963 2964 2963 2963
Wind_Speed
20 28 39 39 32 33 33 34 36 33 29 28 33 35 33 28 28 34 38 38 39 39 30 25 26 27 22 24 26 26 27 23 22 24 19 18 20 14 5 6 18 40 45 40
24 36 33 26 26 26 27 30 35 33 21 18 28 41 38 32 33 34 37 35 30 39 34 24 25 32 32 27 28 24 26 22 20 23 18 19 18 13 10 8 8 25 35 42
32 28 11 31 31 27 27 29 28 28 24 26 31 46 42 34 34 32 33 31 35 31 36 28 27 21 23 27 27 25 24 21 19 22 18 18 19 17 17 18 19 14 31 38
33 34 30 26 21 18 27 25 23 25 27 25 26 25 49 37 35 33 32 34 26 20 21 24 23 25 24 18 24 26 24 19 19 21 18 16 18 18 16 20 21 23 23 38
32 25 21 25 32 27 37 25 24 26 29 30 32 13 49 29 43 43 37 33 29 25 23 27 25 21 23 24 22 26 24 18 19 19 17 17 18 19 19 21 22 24 28 37
28 24 20 20 16 14 17 16 18 22 20 13 31 17 50 31 33 37 39 26 28 28 25 29 32 27 25 29 28 27 25 18 19 18 17 17 18 21 23 23 26 28 31 38
27 29 27 24 24 20 22 23 3 4 4 11 21 20 35 33 33 27 22 30 36 28 24 31 37 31 23 28 32 29 22 20 18 17 16 17 19 21 23 24 26 30 33 40
12 8 14 15 12 9 11 11 11 6 5 8 19 8 14 26 26 30 37 40 30 30 22 31 35 26 22 30 33 30 20 19 17 15 15 16 18 19 20 19 21 28 32 38
6 12 11 11 11 10 12 17 14 24 24 7 16 22 30 26 21 24 24 25 23 22 15 24 30 24 22 30 34 27 19 19 17 14 13 12 15 14 15 13 17 18 23 31
17 20 23 18 12 10 5 5 4 5 3 6 7 7 16 22 16 21 29 30 22 19 28 25 27 29 26 29 33 26 21 20 16 14 10 10 10 10 13 12 11 10 11 22
8 12 7 6 5 5 11 6 1 2 6 3 4 6 4 11 21 23 28 28 31 18 11 10 17 18 28 31 33 25 24 21 17 13 9 7 7 7 9 10 7 13 12 7
5 3 6 8 6 7 5 2 3 4 6 9 7 8 16 17 20 26 31 35 34 7 8 6 8 12 23 31 32 26 25 20 17 15 10 8 7 6 8 6 8 7 11 11
6 2 4 3 2 6 2 3 5 5 2 9 7 8 14 20 25 27 24 32 36 26 5 4 8 24 30 32 31 29 27 22 19 16 13 10 8 8 9 10 9 9 10 12
8 8 8 8 4 11 15 12 17 8 8 11 17 33 26 20 22 23 19 25 32 11 8 8 10 26 27 35 31 28 29 25 22 19 16 12 10 9 10 11 11 11 8 7
7 12 14 17 15 14 19 25 21 20 23 16 38 38 31 20 23 23 18 20 26 18 4 4 11 13 32 31 26 27 28 27 26 23 19 14 12 11 11 10 12 14 14 12
10 9 11 17 15 17 24 28 30 29 30 32 36 37 26 21 18 21 16 20 23 14 7 11 8 7 26 27 23 23 27 28 28 27 24 20 16 15 14 13 12 13 15 17
17 13 8 11 11 13 20 32 21 24 22 24 30 30 27 28 25 16 21 20 28 26 21 14 7 14 17 18 22 25 27 28 29 29 28 25 22 19 18 17 18 18 16 16
21 20 15 13 12 7 19 12 15 21 27 27 29 23 24 26 20 20 18 19 22 19 15 18 19 9 13 10 20 11 17 25 26 29 31 29 26 25 24 23 21 21 20 20
21 25 15 9 13 23 32 22 13 12 24 19 19 20 23 24 23 18 17 20 16 16 14 15 11 10 14 13 14 20 14 15 26 29 28 29 29 28 27 27 25 24 24 24
9 17 28 16 5 5 6 6 7 20 30 13 11 15 16 9 9 14 20 18 15 16 19 15 17 12 13 12 20 22 25 23 13 27 32 29 27 30 28 29 29 28 27 27
15 18 31 25 12 14 23 17 20 12 12 8 3 3 6 8 8 11 11 13 13 13 16 19 19 17 15 14 10 18 21 22 16 14 21 30 23 17 22 27 29 30 30 31
15 7 11 14 14 11 4 5 6 8 10 7 3 7 7 7 8 11 12 16 16 15 16 16 19 21 23 18 16 14 21 21 19 20 20 29 28 20 16 16 22 28 31 34
7 18 4 12 11 10 7 9 15 2 8 7 9 7 6 10 12 13 12 13 15 15 17 18 19 18 22 20 18 19 19 19 17 21 23 26 22 22 29 19 21 24 22 23
26 29 7 11 13 16 16 11 10 5 3 3 6 8 10 10 15 12 12 11 15 16 17 21 18 16 18 21 19 20 22 20 20 23 21 20 13 16 18 21 23 32 32 38
18 23 27 4 9 3 6 11 6 4 6 6 6 9 12 14 16 11 8 9 11 16 21 12 16 17 14 15 18 19 26 27 23 22 23 21 21 23 24 27 28 32 29 33
18 23 25 21 17 13 13 9 6 0 5 4 5 8 14 14 13 8 11 10 14 18 22 12 8 9 9 10 13 17 23 30 30 31 31 29 29 29 26 28 30 33 47 44
Wind_Direction
228 232 232 239 248 256 257 268 274 276 279 284 274 276 279 282 281 278 281 289 279 267 251 266 241 247 242 259 265 270 266 288 300 308 304 273 260 246 251 21 183 180 193 195
243 245 247 251 247 251 254 262 266 278 284 280 288 282 282 287 290 292 293 295 283 280 248 260 251 257 248 255 265 263 263 284 295 303 302 268 257 234 205 173 173 190 201 197
249 249 280 241 247 246 252 255 267 275 291 287 294 289 285 289 295 297 295 301 305 293 249 249 250 255 256 255 261 254 259 277 285 297 299 273 252 233 206 202 198 182 186 184
260 262 250 251 254 242 256 256 267 277 289 278 295 286 290 296 301 301 306 312 312 291 254 256 257 252 257 254 247 240 255 275 280 292 291 272 258 244 232 210 212 203 205 206
248 254 261 246 253 255 262 272 278 283 282 285 277 256 285 297 295 303 311 316 311 307 274 249 245 252 252 246 236 234 247 272 277 286 285 271 255 243 230 221 216 215 210 203
248 244 240 244 243 233 260 271 267 281 280 256 269 265 280 291 300 305 310 319 312 286 268 244 239 250 253 239 230 230 242 269 271 279 281 273 253 237 231 226 223 223 225 218
242 246 250 254 266 261 256 263 295 280 205 251 274 273 263 285 296 294 301 309 306 286 262 236 244 252 266 233 227 226 237 265 263 271 277 273 256 240 230 235 236 222 225 229
249 264 250 241 242 270 240 255 206 233 225 262 269 246 268 297 290 287 291 296 290 289 261 256 249 254 257 227 218 223 236 248 258 263 271 266 256 243 238 236 229 232 241 233
255 252 247 254 267 265 258 255 281 254 259 271 261 265 280 297 295 287 295 292 281 276 263 238 240 243 242 227 216 217 231 237 249 251 260 260 256 235 236 236 238 241 239 229
248 266 258 264 250 262 268 234 216 213 224 239 261 270 282 304 313 322 314 320 282 270 246 231 235 233 222 216 213 215 222 227 232 236 244 244 245 222 223 242 230 220 218 213
220 234 245 218 225 267 274 268 238 319 297 288 273 273 295 334 324 321 322 320 305 260 226 267 252 220 206 203 207 218 218 222 223 221 221 220 220 183 210 229 249 232 212 186
356 321 292 267 253 299 306 334 30 180 352 323 276 276 278 292 322 321 313 314 305 210 41 2 289 201 186 205 208 215 209 216 210 210 204 193 190 170 160 187 208 214 190 201
307 248 317 258 148 185 199 147 35 358 299 255 286 279 277 298 313 315 312 315 319 283 58 276 241 211 209 209 209 206 200 205 207 208 203 194 182 168 158 156 151 170 189 196
259 246 251 255 276 300 294 283 293 297 273 278 270 286 292 312 319 334 315 312 305 341 48 60 313 227 215 211 208 209 200 199 202 208 204 194 188 187 169 161 155 149 158 178
257 262 265 270 279 278 275 278 287 279 272 256 283 275 281 290 296 316 315 313 295 337 322 30 324 259 216 215 212 210 203 199 201 202 205 198 196 202 198 182 175 166 161 166
281 269 285 276 283 276 277 277 276 277 274 270 270 272 269 292 287 292 299 280 287 335 341 1 343 316 210 206 206 208 211 207 205 202 205 209 210 211 212 203 198 197 184 181
277 272 266 274 278 297 293 274 274 286 278 271 270 264 262 282 289 267 275 277 293 306 332 336 20 346 213 211 215 207 206 211 215 209 208 209 211 217 218 217 214 212 210 206
272 271 267 269 278 261 257 268 279 286 283 278 271 249 254 273 281 247 274 260 279 290 291 315 340 331 329 253 207 242 209 211 219 220 217 214 214 215 218 222 223 222 221 219
256 253 248 243 235 264 273 277 293 287 272 277 238 241 243 257 262 245 253 269 262 279 282 282 300 294 292 242 227 219 231 209 218 227 221 222 219 219 222 226 226 225 225 226
266 285 234 225 215 243 259 205 311 323 302 220 215 220 226 240 253 257 256 267 279 272 269 271 283 276 279 286 222 208 213 220 230 244 227 224 227 225 225 229 231 232 230 230
279 287 219 213 231 260 259 238 286 278 293 129 90 274 260 257 266 272 280 292 287 285 282 270 259 257 263 272 267 223 220 223 238 242 235 214 215 233 244 234 235 237 238 238
311 265 193 187 207 261 280 272 239 259 41 25 309 277 297 290 283 279 280 276 283 293 298 289 267 255 255 256 251 240 228 234 232 241 227 223 209 218 235 249 248 252 248 246
299 318 210 203 226 232 243 269 298 306 81 29 17 0 327 307 302 292 294 288 291 290 296 289 274 267 248 252 248 247 241 227 215 200 206 221 217 226 230 244 249 253 254 253
335 18 20 196 237 251 260 272 290 272 86 315 335 336 6 328 338 308 306 297 299 296 297 289 291 270 256 246 252 234 237 241 227 220 239 266 247 244 243 238 242 241 256 259
15 7 6 164 239 287 249 233 221 216 274 296 309 329 330 321 330 303 294 311 331 333 334 280 268 271 258 253 247 239 223 224 235 236 232 234 236 239 241 244 253 251 259 265
5 352 5 8 2 23 70 101 90 31 333 338 331 325 326 322 323 260 339 339 345 357 349 298 248 257 243 243 236 225 221 220 219 222 227 230 235 243 249 248 253 251 241 247